WU Storia Txt - Stazione meteorologica di Pomezia (RM)


   

Webcam Castelli Romani more information Webcam Castelli Romani


Webcam Traffico live more information Webcam Traffico live


altri nostri siti meteo:

Pomeziameteo 1Sito sul meteo

Pomeziameteo DashboardSito sul meteo

Caput FrigorisSito sul meteo

BarcellonameteoSito sul meteo

MeteoipassiSito sul meteo

ViterbometeoSito sul meteo

TortoretometeolidoSito sul meteo

MeteospinacetoSito sul meteo

MeteoardeaSito sul meteo

MeteopalestrinaSito sul meteo

MeteocastelliSito sul meteo

MeteoiserniaSito sul meteo

RomaeurmeteoSito sul meteo

MeteomarconiaSito sul meteo

CastelnuovovomanometeoSito sul meteo

MeteogonzagaSito sul meteo

MeteonetworkInvio dai a Meteonetwork

Rete Linea MeteoInvio dai a Meteonetwork



Nessuna attenzione particolare richiesta.    Non ci sono allerte meteo

Weather Underground Storia pagina Testo

Quotidiano Riepilogo per Giugno 18, 2018 Unita:  Metrico    Inglese   Entrambi
« Indietro Day
Avanti Day »
Quotidiano Settimanale mensile Annuale Personalizzato
  Attuale: Max: Min: Media:
Temperatura: -5.6 °C -17.8 °C -6.4 °C -6.1 °C
P.to Rugiada: -8.7 °C -17.8 °C -8.8 °C -8.3 °C
Umidita: 71 % Humidity % 71 % 77 %
Vel. Vento: 0 km/h 0 km/h 0 km/h 2.4 km/h
Raffiche: 12.9 km/h 0 km/h - -
Vento:Calm - - WSW
Pressione: 34235.8 hPa 0 hPa 34212.1 hPa -
Precipitazioni: 0 mm      
Historical Graphs
 
 
Dati di tabella per il Giugno 18, 2018
Tempo Temperatura P.to Rugiada Pressione Vento Vel. Vento Raffiche Umidita Tasso delle precipitazioni (oraria)
-17.8 °C -17.8 °C 0 hPa Calm     Humidity % 0 mm
00:00 -5.8 °C -7.7 °C 34246 hPa Calm     81 % 0 mm
00:05 -5.8 °C -7.7 °C 34246 hPa Calm     81 % 0 mm
00:10 -5.9 °C -7.8 °C 34246 hPa Calm     81 % 0 mm
00:15 -5.9 °C -7.8 °C 34246 hPa Calm     81 % 0 mm
00:20 -5.9 °C -7.7 °C 34246 hPa Calm     82 % 0 mm
00:25 -5.9 °C -7.7 °C 34246 hPa Calm     82 % 0 mm
00:30 -6 °C -7.8 °C 34235.8 hPa Calm     82 % 0 mm
00:35 -6 °C -7.8 °C 34246 hPa Calm     82 % 0 mm
00:40 -6 °C -7.8 °C 34235.8 hPa Calm     82 % 0 mm
00:45 -6.1 °C -7.8 °C 34246 hPa Calm     82 % 0 mm
00:50 -6.1 °C -7.9 °C 34246 hPa Calm     82 % 0 mm
00:55 -6.1 °C -7.7 °C 34246 hPa Calm     83 % 0 mm
01:00 -6.1 °C -7.9 °C 34246 hPa Calm     82 % 0 mm
01:05 -6.1 °C -7.9 °C 34246 hPa SE 7.7 km/h 10.3 km/h 82 % 0 mm
01:10 -6.1 °C -8 °C 34246 hPa Calm   12.9 km/h 81 % 0 mm
01:15 -6.1 °C -8 °C 34246 hPa SE 2.6 km/h 10.3 km/h 81 % 0 mm
01:20 -6.1 °C -8.1 °C 34246 hPa East 7.7 km/h 10.3 km/h 80 % 0 mm
01:25 -6.1 °C -8.2 °C 34246 hPa Calm   7.7 km/h 79 % 0 mm
01:30 -6.1 °C -8.2 °C 34246 hPa East 7.7 km/h 10.3 km/h 79 % 0 mm
01:35 -6 °C -8.2 °C 34246 hPa East 2.6 km/h 7.7 km/h 78 % 0 mm
01:40 -5.9 °C -8.2 °C 34235.8 hPa Calm   5.1 km/h 78 % 0 mm
01:45 -5.9 °C -8.2 °C 34235.8 hPa Calm     77 % 0 mm
01:50 -5.9 °C -8.2 °C 34235.8 hPa East 2.6 km/h 10.3 km/h 77 % 0 mm
01:55 -5.8 °C -8.2 °C 34235.8 hPa NE 5.1 km/h 10.3 km/h 77 % 0 mm
02:00 -5.8 °C -8.1 °C 34235.8 hPa East 7.7 km/h 7.7 km/h 77 % 0 mm
02:05 -5.8 °C -8.1 °C 34235.8 hPa ESE 5.1 km/h 7.7 km/h 77 % 0 mm
02:10 -5.8 °C -8.1 °C 34235.8 hPa Calm   7.7 km/h 78 % 0 mm
02:15 -5.8 °C -8.1 °C 34235.8 hPa Calm     78 % 0 mm
02:20 -5.8 °C -8.1 °C 34235.8 hPa Calm     78 % 0 mm
02:25 -5.8 °C -8.1 °C 34235.8 hPa Calm     78 % 0 mm
02:30 -5.8 °C -8.1 °C 34235.8 hPa Calm     78 % 0 mm
02:35 -5.8 °C -8.1 °C 34235.8 hPa Calm     78 % 0 mm
02:40 -5.8 °C -8.1 °C 34235.8 hPa Calm     78 % 0 mm
02:45 -5.8 °C -8.2 °C 34222.3 hPa Calm     77 % 0 mm
02:50 -5.8 °C -8.2 °C 34235.8 hPa Calm     77 % 0 mm
02:55 -5.8 °C -8.2 °C 34235.8 hPa Calm     77 % 0 mm
03:00 -5.8 °C -8.2 °C 34235.8 hPa Calm     77 % 0 mm
03:05 -5.8 °C -8.1 °C 34222.3 hPa Calm     77 % 0 mm
03:10 -5.8 °C -8.1 °C 34222.3 hPa Calm     77 % 0 mm
03:15 -5.7 °C -8.1 °C 34222.3 hPa Calm     77 % 0 mm
03:20 -5.7 °C -8.1 °C 34222.3 hPa Calm     77 % 0 mm
03:25 -5.7 °C -8.1 °C 34222.3 hPa Calm     77 % 0 mm
03:30 -5.7 °C -8 °C 34222.3 hPa Calm     77 % 0 mm
03:35 -5.7 °C -8.1 °C 34222.3 hPa Calm     77 % 0 mm
03:40 -5.7 °C -8 °C 34222.3 hPa Calm   2.6 km/h 77 % 0 mm
03:45 -5.7 °C -8 °C 34222.3 hPa Calm     77 % 0 mm
03:50 -5.7 °C -8 °C 34222.3 hPa Calm     77 % 0 mm
03:55 -5.7 °C -8.1 °C 34222.3 hPa Calm     77 % 0 mm
04:00 -5.8 °C -8.3 °C 34222.3 hPa Calm     76 % 0 mm
04:05 -5.9 °C -8.3 °C 34222.3 hPa Calm     76 % 0 mm
04:10 -5.9 °C -8.3 °C 34222.3 hPa Calm   10.3 km/h 77 % 0 mm
04:15 -5.9 °C -8.3 °C 34222.3 hPa Calm   2.6 km/h 77 % 0 mm
04:20 -6.1 °C -8.3 °C 34222.3 hPa NNW 7.7 km/h 10.3 km/h 78 % 0 mm
04:25 -6.1 °C -8.3 °C 34222.3 hPa NW 5.1 km/h 10.3 km/h 78 % 0 mm
04:30 -6.2 °C -8.4 °C 34222.3 hPa Calm   10.3 km/h 78 % 0 mm
04:35 -6.2 °C -8.4 °C 34222.3 hPa Calm     78 % 0 mm
04:40 -6.2 °C -8.4 °C 34212.1 hPa Calm     78 % 0 mm
04:45 -6.2 °C -8.3 °C 34222.3 hPa Calm     79 % 0 mm
04:50 -6.2 °C -8.3 °C 34212.1 hPa Calm     79 % 0 mm
04:55 -6.2 °C -8.3 °C 34222.3 hPa Calm   2.6 km/h 79 % 0 mm
05:00 -6.2 °C -8.3 °C 34222.3 hPa Calm     79 % 0 mm
05:05 -6.2 °C -8.3 °C 34222.3 hPa Calm     79 % 0 mm
05:10 -6.2 °C -8.3 °C 34222.3 hPa Calm     79 % 0 mm
05:15 -6.2 °C -8.3 °C 34222.3 hPa Calm   10.3 km/h 79 % 0 mm
05:20 -6.2 °C -8.3 °C 34222.3 hPa Calm     79 % 0 mm
05:25 -6.2 °C -8.3 °C 34222.3 hPa NW 7.7 km/h 15.6 km/h 79 % 0 mm
05:30 -6.3 °C -8.4 °C 34222.3 hPa NW 7.7 km/h 18.2 km/h 79 % 0 mm
05:35 -6.3 °C -8.4 °C 34222.3 hPa Calm   15.6 km/h 79 % 0 mm
05:40 -6.3 °C -8.4 °C 34222.3 hPa NNW 10.3 km/h 12.9 km/h 79 % 0 mm
05:45 -6.4 °C -8.5 °C 34222.3 hPa NW 5.1 km/h 7.7 km/h 79 % 0 mm
05:50 -6.4 °C -8.4 °C 34222.3 hPa North 12.9 km/h 20.8 km/h 80 % 0 mm
05:55 -6.4 °C -8.4 °C 34222.3 hPa Calm   20.8 km/h 80 % 0 mm
06:00 -6.4 °C -8.4 °C 34222.3 hPa NW 7.7 km/h 15.6 km/h 80 % 0 mm
06:05 -6.4 °C -8.4 °C 34222.3 hPa Calm   7.7 km/h 80 % 0 mm
06:10 -6.4 °C -8.4 °C 34222.3 hPa Calm     80 % 0 mm
06:15 -6.4 °C -8.5 °C 34222.3 hPa Calm   2.6 km/h 79 % 0 mm
06:20 -6.4 °C -8.5 °C 34222.3 hPa Calm     79 % 0 mm
06:25 -6.3 °C -8.4 °C 34222.3 hPa Calm     79 % 0 mm
06:30 -6.3 °C -8.6 °C 34235.8 hPa NNW 2.6 km/h 7.7 km/h 78 % 0 mm
06:35 -6.3 °C -8.6 °C 34222.3 hPa North 10.3 km/h 23.3 km/h 78 % 0 mm
06:40 -6.3 °C -8.6 °C 34235.8 hPa North 15.6 km/h 25.9 km/h 78 % 0 mm
06:45 -6.3 °C -8.7 °C 34235.8 hPa Calm   25.9 km/h 77 % 0 mm
06:50 -6.3 °C -8.7 °C 34222.3 hPa NW 5.1 km/h 20.8 km/h 77 % 0 mm
06:55 -6.2 °C -8.6 °C 34222.3 hPa Calm   12.9 km/h 77 % 0 mm
07:00 -6 °C -8.6 °C 34235.8 hPa NW 10.3 km/h 20.8 km/h 75 % 0 mm
07:05 -5.9 °C -8.7 °C 34235.8 hPa North 15.6 km/h 25.9 km/h 73 % 0 mm
07:10 -5.8 °C -8.7 °C 34235.8 hPa NW 10.3 km/h 23.3 km/h 73 % 0 mm
07:15 -5.8 °C -8.7 °C 34235.8 hPa NW 2.6 km/h 18.2 km/h 72 % 0 mm
07:20 -5.7 °C -8.7 °C 34235.8 hPa NW 10.3 km/h 23.3 km/h 72 % 0 mm
07:25 -5.7 °C -8.8 °C 34235.8 hPa NW 12.9 km/h 23.3 km/h 71 % 0 mm
07:30 -5.7 °C -8.8 °C 34235.8 hPa NNW 5.1 km/h 25.9 km/h 71 % 0 mm
07:35 -5.7 °C -8.7 °C 34235.8 hPa NNW 10.3 km/h 12.9 km/h 71 % 0 mm
07:40 -5.6 °C -8.7 °C 34235.8 hPa Calm   12.9 km/h 71 % 0 mm
Stazione meteorologica di Pomezia (RM)
complimenti di Weather Underground - 4 mb

Script sviluppato da  Jim McMurry - jmcmurry@mwt.net Adattato per il modello da  Wim van der Kuil - Leuven-Template.eu

Potete trovare le nostre info meteo anche a:

UK Metoffice

European Weather Network

Weather Underground

AWEKAS

Citizen Weather Observer Program (CWOP)

HAMweather, WeatherForYou, PWS Weather

Strumentazione usata:

Stazione meteo
Davis VP2

Programma gestore dati meteo
WVIEW

Server per i dati meteo
Pc-WDS5

Provider
PC-HP-6005

Davis VP2

WVIEW

Pc-WDS5

PC-HP-6005